Location: Bay Harbour
(38.2612°N, 75.2555°W)
Time: 00:30:26
(UTC+00:00)

YAOGAN 1 - Pass Details

Date: 29 October 2020
Orbit: 618 x 620 km, 97.9° (Epoch: 02 December)

Event Time Altitude Azimuth Distance (km) Brightness Sun altitude
Rises 23:40:16 0° 164° (SSE) 2,882 5.9 -19.3°
Reaches altitude 10° 23:42:26 10° 163° (SSE) 1,980 5.0 -19.8°
Maximum altitude 23:46:44 82° 77° (ENE) 632 2.4 -20.6°
Drops below altitude 10° 23:51:05 10° 350° (N) 1,994 5.3 -21.5°
Sets 23:53:17 0° 349° (N) 2,904 6.1 -21.9°
